Location: Chevoux
(46.3801°N, 4.9476°E)
Time: 22:09:38
(UTC+00:00)

SAR-Lupe-1 - Pass Details

Date: 28 January 2021
Orbit: 482 x 484 km, 98.2° (Epoch: 02 March)

Event Time Altitude Azimuth Distance (km) Brightness Sun altitude
Exits shadow 18:30:13 22° 11° (N) 1,103 5.7 -19.2°
Maximum altitude 18:32:26 83° 284° (WNW) 494 4.0 -19.6°
Drops below altitude 10° 18:36:00 10° 198° (SSW) 1,659 7.0 -20.2°
Sets 18:38:02 0° 197° (SSW) 2,533 8.0 -20.5°
